Miscellaneous Local Product
Issued by NWS Hastings, NE

Home | Current Version | Previous Version | Graphics & Text | Print | Product List | Glossary On
Versions: 1 2 3 4 5 6 7 8 9 10 11 12 13 14 15 16 17 18 19 20 21 22 23 24 25 26 27 28 29 30 31 32 33 34 35 36 37 38 39 40 41 42 43 44 45 46 47 48 49 50
000
AXUS43 KGID 270202
MISGRI

GID CWA HOURLY WEATHER ROUNDUP
NATIONAL WEATHER SERVICE HASTINGS NE
900 PM CDT TUE JUL 26 2016

NOTE: "FAIR" INDICATES FEW OR NO CLOUDS BELOW 12,000 FEET WITH NO
SIGNIFICANT WEATHER AND/OR OBSTRUCTIONS TO VISIBILITY.

...SOUTH CENTRAL NEBRASKA...

CITY           SKY/WX    TMP DP  RH WIND       PRES   REMARKS
GRAND ISLAND   PTCLDY    79  68  69 SE7       30.00S
HASTINGS       CLEAR     80  66  62 S9        30.01S
KEARNEY        PTCLDY    75  66  73 SE8       30.01S
ORD            CLEAR     79  66  64 SE8       29.97S
YORK           PTCLDY    77  68  73 SE8       30.00S
AURORA         CLOUDY    76  69  79 SE7       30.00S
LEXINGTON      CLOUDY    79  65  62 SE10      29.99F
HOLDREGE       CLEAR     77  66  70 SE6       30.00F
HEBRON         PTCLDY    78  68  71 S3        30.00S

...NEBRASKA PANHANDLE...

CITY           SKY/WX    TMP DP  RH WIND       PRES   REMARKS
CHADRON        TSTM      71  59  65 NE13G21   30.02R
ALLIANCE       CLOUDY    84  61  45 S8G28     29.93F
SCOTTSBLUFF    CLOUDY    83  45  26 S6        29.99S
SIDNEY         CLEAR     80  50  34 SW10      30.07R

...WESTERN AND NORTH CENTRAL NEBRASKA...

CITY           SKY/WX    TMP DP  RH WIND       PRES   REMARKS
VALENTINE      CLOUDY    76  63  64 NW17G29   29.91R THUNDER
AINSWORTH      MOCLDY    81  65  58 SE12      29.94S
ONEILL         PTCLDY    79  65  60 SE8       30.00R
BROKEN BOW     CLEAR     78  67  68 SE8       29.98F
IMPERIAL       CLOUDY    84  65  52 S12       29.97S
NORTH PLATTE   CLOUDY    79  66  64 SE9       29.97S
MCCOOK         CLOUDY    83  63  50 SE10G22   29.97F

...EASTERN NEBRASKA...

CITY           SKY/WX    TMP DP  RH WIND       PRES   REMARKS
NORFOLK        CLEAR     76  65  68 SE9       29.99S
SO SIOUX CITY  CLEAR     77  67  71 S6        30.00R
TEKAMAH        CLEAR     76  68  76 SE5       30.00R
COLUMBUS       CLEAR     77  61  57 SE8       30.00S
ALBION         CLEAR     75  65  71 SE5       30.00S
OMAHA EPPLEY   PTCLDY    81  68  64 E6        29.99S
OFFUTT AFB     PTCLDY    76  70  79 E8        29.99S
MILLARD        PTCLDY    79  68  68 SE5       30.00R
LINCOLN        PTCLDY    80  64  58 SE10      30.01R
NEBRASKA CITY  MOCLDY    77  65  67 SE5       30.01S
BEATRICE       PTCLDY    79  66  64 E6        30.00S
FALLS CITY     CLEAR     77  69  76 E3        29.99S

...NORTHERN KANSAS...

CITY           SKY/WX    TMP DP  RH WIND       PRES   REMARKS
GOODLAND       TSTM      66  61  84 NE13      30.04F
HILL CITY      CLEAR     80  67  64 SE5       30.00R
NORTON         CLEAR     81  61  50 SE6       30.00R
SMITH CENTER   CLEAR     75  64  69 E8        30.00R
BELOIT         CLEAR     79  66  65 E6        29.98R
HAYS           CLEAR     79  63  57 S6        30.00R
RUSSELL        CLEAR     81  67  62 E9        29.98R
CONCORDIA      CLEAR     75  69  81 SE7       30.00R
SALINA         PTCLDY    85  70  60 SE8       29.98R
TOPEKA         CLEAR     79  68  69 NE5       29.98S



USA.gov is the U.S. government's official web portal to all federal, state and local government web resources and services.